Location: Fort Wayne
(41.1310°N, 85.1290°W)
Time: 23:00:35
(UTC-05:00)

Iridium 37 - Visible Passes

Search period start: 17 December 2014 00:00
Search period end: 27 December 2014 00:00
Orbit: 776 x 779 km, 86.4° (Epoch: 17 December)

Date Brightness Start Highest point End Pass type
(mag) Time Alt. Az. Time Alt. Az. Time Alt. Az.
17 Dec 6.3 05:13:20 46° SSE 05:13:20 46° SSE 05:17:02 10° S visible
17 Dec 7.4 06:53:53 11° W 06:53:53 11° W 06:54:28 10° WSW visible
17 Dec 6.2 18:03:21 10° SSW 18:08:28 58° W 18:13:36 10° N visible
18 Dec 7.6 04:41:07 21° SE 04:41:07 21° SE 04:43:01 10° SSE visible
18 Dec 7.3 06:21:41 16° SW 06:21:41 16° SW 06:22:55 10° SW visible
18 Dec 8.5 19:14:16 10° W 19:16:17 12° WNW 19:18:17 10° NW visible
19 Dec 7.5 05:49:24 15° SSW 05:49:24 15° SSW 05:50:22 10° SSW visible
19 Dec 7.9 18:38:23 10° SW 18:42:23 22° WNW 18:46:25 10° NNW visible
20 Dec 8.0 05:17:04 11° S 05:17:04 11° S 05:17:12 10° S visible
20 Dec 7.0 18:03:47 10° SSW 18:08:39 40° W 18:13:32 10° NNW visible
22 Dec 8.3 18:39:39 10° WSW 18:42:42 16° WNW 18:45:46 10° NW visible
23 Dec 7.6 18:04:27 10° SW 18:08:53 28° W 18:13:19 10° NNW visible
25 Dec 8.6 18:42:07 10° W 18:43:04 10° WNW 18:44:02 10° WNW visible
26 Dec 8.1 18:05:25 10° WSW 18:09:09 20° WNW 18:12:54 10° NNW visible
